GFSNW_925_thetae_057.txt.gz
Theta_e
299 298 299 298 297 297 303 306 315 312 309 308 305 308 310 313 314 315 315 316 315 315 316 318 318 321 323 321 320 318 315 314 317 318 319 321 319 319 317 319 319 323 325 328
299 298 299 298 297 298 303 303 309 313 310 310 309 308 312 313 312 312 315 317 317 316 316 316 318 320 321 321 326 326 318 316 317 317 317 319 327 324 319 316 317 326 328 328
300 299 298 298 297 297 303 306 320 312 306 305 309 312 311 312 314 313 314 315 316 315 316 316 317 319 321 319 325 338 321 316 317 317 318 322 327 327 324 321 323 324 323 332
301 299 298 298 297 297 305 306 312 315 315 312 311 310 312 313 313 316 313 315 316 316 316 316 317 320 319 319 325 324 320 318 323 322 323 324 325 326 325 326 324 327 326 338
301 300 298 298 297 298 306 309 314 312 315 312 315 312 312 314 314 315 318 316 317 315 316 316 322 323 320 320 320 321 324 328 324 323 325 327 327 326 327 328 328 329 337 340
301 300 299 298 297 299 303 310 313 312 314 315 315 313 316 317 317 318 319 320 318 322 323 321 318 318 319 319 322 321 326 324 329 329 326 326 321 325 327 329 331 332 337 334
302 301 299 298 300 298 298 304 309 311 316 315 317 316 315 317 318 317 319 318 323 324 321 320 317 317 318 318 319 317 320 321 330 332 326 326 321 326 329 335 342 341 333 331
302 301 300 298 298 299 298 298 307 308 314 315 315 315 315 316 316 320 321 321 319 315 319 319 317 317 317 319 318 319 316 320 321 327 328 328 332 336 336 335 334 341 339 335
302 302 300 298 298 297 296 299 306 305 310 312 313 313 314 316 316 319 321 317 316 317 317 321 321 319 320 320 319 312 317 316 318 327 325 329 331 344 341 336 336 336 339 338
301 302 300 299 297 297 296 300 306 307 308 308 311 310 312 312 314 317 315 314 322 319 318 322 324 322 321 321 319 318 315 317 321 324 324 328 337 337 339 339 332 333 334 334
301 301 301 300 297 297 296 303 308 307 304 304 308 310 309 308 310 313 312 320 319 322 327 323 321 324 326 328 329 333 329 332 327 324 325 328 334 336 339 332 329 333 335 337
301 301 301 300 298 297 296 304 306 309 306 305 309 309 311 310 309 309 310 316 317 322 322 324 324 331 328 329 335 327 334 330 331 336 334 331 332 330 328 324 329 335 333 334
301 301 301 300 299 297 296 298 306 309 306 308 309 308 310 311 311 310 311 313 315 318 315 319 322 328 325 328 329 328 330 328 330 329 332 331 332 327 326 327 329 330 334 336
301 301 301 300 300 297 296 296 303 306 306 310 310 313 312 313 312 314 315 314 313 312 315 316 317 323 323 326 323 326 326 326 328 329 327 326 330 326 325 326 328 331 331 329
301 301 301 301 300 297 296 297 304 307 307 310 309 311 314 314 314 314 314 313 311 311 313 318 317 317 320 319 324 327 326 325 323 324 325 326 325 325 324 328 329 328 327 326
301 301 301 301 300 297 300 307 307 306 308 306 311 310 310 312 314 313 312 310 311 311 311 311 312 315 316 319 327 325 325 326 321 324 327 325 325 324 326 328 325 325 328 332
300 301 302 301 299 297 300 307 309 305 306 307 313 310 309 312 311 309 308 309 308 308 308 311 315 316 314 315 319 324 326 323 324 325 325 325 324 324 325 327 327 327 326 329
301 301 301 300 298 297 298 304 304 304 306 309 311 310 311 311 310 310 306 309 309 309 309 307 315 315 313 317 315 320 323 325 326 326 324 322 321 321 322 326 329 329 330 328
301 301 300 297 298 299 307 308 306 307 311 312 310 310 316 309 308 310 311 309 313 309 311 308 312 315 316 313 315 319 321 324 322 322 322 322 324 323 325 328 328 327 328 328
301 300 301 302 304 308 310 306 305 306 306 306 309 306 312 310 311 315 316 314 316 318 313 309 309 312 315 317 314 312 318 319 314 321 326 324 324 326 327 327 326 326 326 326
300 299 303 308 309 308 307 310 309 307 309 307 308 305 308 306 317 316 313 315 314 315 314 316 317 322 320 317 318 315 314 320 324 323 322 323 324 326 325 325 325 324 324 323
298 302 303 306 307 310 312 312 310 310 310 307 306 305 303 307 312 313 313 316 316 318 316 317 324 320 316 315 319 318 316 319 321 321 324 325 325 322 322 324 324 323 322 322
303 303 307 307 307 309 314 313 313 310 310 309 307 307 311 307 311 315 316 319 318 315 320 321 319 315 314 316 316 319 320 320 321 321 323 323 323 323 323 322 321 321 320 319
306 310 309 309 311 311 311 312 310 308 309 308 307 307 308 308 311 312 317 316 317 320 319 321 315 314 314 312 315 319 319 319 320 319 321 321 322 322 322 321 320 319 318 317
309 311 310 311 310 308 306 305 306 308 307 309 311 311 308 313 317 315 314 317 321 321 320 316 315 313 312 317 319 320 321 320 318 318 319 320 321 320 320 320 319 318 316 315
308 310 312 309 307 308 306 307 308 307 309 310 311 313 316 318 316 320 319 319 320 317 315 314 312 315 315 319 321 321 320 317 316 317 317 319 320 319 320 319 317 315 314 313
311 310 308 306 307 312 312 310 312 310 313 315 313 317 319 313 317 320 318 318 316 315 315 313 313 313 315 316 318 317 317 316 317 318 319 320 320 320 319 316 315 315 314 313

GFSNW_925_thetae_063.txt.gz
Theta_e
301 300 300 299 299 298 298 303 309 310 306 309 308 313 314 312 315 314 315 316 316 315 316 320 320 322 323 321 322 322 320 323 324 322 321 321 324 326 329 326 332 330 331 326
301 300 301 299 299 299 301 305 307 310 307 311 312 311 312 313 313 314 314 316 316 317 319 321 319 320 320 320 328 328 321 324 324 325 322 323 326 323 325 328 331 337 332 328
302 300 301 299 299 299 301 307 321 314 310 308 311 314 315 315 313 313 313 313 315 317 319 318 320 320 320 320 324 326 325 324 328 324 325 325 330 326 324 330 333 334 331 334
304 301 301 300 298 298 304 307 313 315 316 315 314 314 315 316 316 315 314 315 314 317 321 319 319 323 322 320 323 327 327 333 328 326 323 325 327 329 328 330 332 332 334 334
303 301 301 300 298 298 306 310 316 315 315 316 317 315 319 317 318 317 318 317 317 316 320 321 321 324 325 324 324 327 328 337 333 331 327 330 328 327 328 328 328 332 335 335
304 301 302 300 298 298 299 301 309 312 315 317 317 317 317 317 317 319 317 316 319 316 318 318 322 323 324 324 326 328 332 333 337 329 333 329 329 327 327 332 335 338 336 340
305 302 301 300 299 299 299 298 305 313 318 317 318 317 316 316 318 319 319 321 325 322 321 320 320 320 321 322 323 322 330 336 336 332 333 331 328 342 339 344 343 343 343 343
306 302 301 301 300 300 299 299 301 310 314 315 316 316 316 316 318 319 322 322 320 319 322 323 325 323 322 322 320 322 322 329 329 332 335 331 340 345 347 348 342 340 343 342
306 303 301 301 300 300 299 298 298 306 311 312 313 315 313 316 318 323 321 318 318 319 323 324 326 324 324 324 322 321 323 325 325 332 332 330 342 338 336 341 344 338 340 342
306 303 301 302 301 300 299 298 300 305 309 309 312 313 312 311 315 319 316 316 324 321 323 324 325 323 323 324 324 330 327 327 326 326 326 332 337 335 335 347 340 337 339 340
306 304 302 302 301 300 298 297 299 305 309 309 308 309 310 311 312 316 317 323 326 328 331 325 325 326 331 333 334 338 337 336 329 327 328 327 334 333 342 338 334 333 336 337
307 305 302 302 301 300 298 297 302 304 305 311 308 309 309 309 309 310 314 322 323 325 330 328 331 335 334 336 340 332 341 337 343 342 337 335 334 332 330 329 330 331 331 332
307 305 301 302 301 300 299 297 297 303 308 311 310 310 307 308 309 308 314 316 319 322 319 325 329 334 330 336 331 335 335 332 338 335 335 334 333 332 329 328 329 330 331 331
307 306 301 301 301 301 300 298 297 297 307 312 312 311 312 311 310 309 309 315 314 318 319 323 325 328 327 330 330 329 330 331 334 329 328 330 332 332 330 328 329 329 329 330
307 306 301 301 301 301 300 299 297 297 308 312 312 310 311 311 307 312 313 315 318 319 321 324 325 323 328 327 329 330 329 329 325 324 328 332 331 329 329 329 328 329 331 332
307 304 301 301 302 301 298 305 304 298 303 310 314 309 313 311 311 312 313 315 316 318 319 319 319 319 323 328 331 330 329 328 325 330 329 330 330 329 328 329 329 328 331 330
307 302 301 301 302 301 298 305 304 303 304 310 310 316 312 310 311 311 312 312 313 315 315 318 322 323 321 323 325 330 328 328 329 328 329 328 328 328 326 326 326 325 330 330
306 301 301 301 301 300 299 298 298 303 301 309 316 316 315 311 315 316 310 315 315 315 315 314 321 321 320 322 320 321 327 327 327 328 329 330 328 327 327 326 328 330 331 331
302 301 301 301 299 298 298 304 306 298 305 314 314 315 319 312 314 315 317 314 317 313 318 316 318 320 320 321 324 324 323 326 327 325 321 324 327 327 327 329 329 330 331 329
301 301 300 300 298 302 304 305 307 306 309 310 314 312 318 315 316 319 321 318 320 321 320 315 317 319 322 322 323 322 321 321 320 324 327 329 330 330 329 329 328 327 329 327
301 299 300 303 308 307 306 307 307 306 309 310 312 313 315 311 319 321 318 320 318 321 321 321 321 324 324 322 323 323 322 321 322 322 328 328 328 328 328 328 327 327 326 326
300 299 303 306 309 309 310 314 312 310 307 310 312 313 312 313 315 321 318 321 319 320 320 322 324 327 321 322 322 324 324 324 324 326 327 325 325 327 327 326 325 325 323 322
300 304 307 309 308 312 314 316 315 315 313 311 309 311 312 315 318 321 322 321 320 320 322 322 325 322 320 321 323 324 323 324 324 324 324 325 326 326 326 326 324 323 321 320
307 310 311 309 311 311 314 315 314 314 312 311 310 313 314 313 319 320 319 320 321 322 322 322 325 322 320 321 322 323 322 322 323 324 324 324 325 324 323 322 321 320 320 318
309 310 311 310 310 311 311 311 311 310 310 310 313 314 316 318 319 318 320 322 321 322 323 324 324 320 321 323 323 322 321 320 319 319 322 322 323 322 321 320 319 317 316 316
308 310 313 313 310 311 310 310 311 309 311 312 314 317 320 319 319 318 317 317 319 323 323 322 322 321 321 323 322 320 318 319 318 319 320 321 322 321 320 317 316 315 315 315
311 313 311 312 312 312 312 310 311 310 315 318 318 319 319 317 321 321 321 323 323 321 321 320 322 323 323 322 321 319 317 318 319 320 321 321 320 320 318 317 315 315 314 314

GFSNW_925_thetae_069.txt.gz
Theta_e
310 308 306 304 301 299 306 309 313 315 313 317 315 314 315 315 318 319 319 320 320 322 322 323 324 325 326 327 326 325 326 326 328 327 327 327 328 328 328 329 331 330 332 331
311 308 306 304 301 299 303 311 312 316 313 318 318 317 315 316 317 318 319 319 320 320 320 322 323 326 326 327 328 328 326 326 327 328 327 327 327 328 329 329 330 333 333 334
311 309 305 304 301 299 303 311 315 319 318 317 318 319 317 316 316 316 317 318 319 320 320 322 323 325 325 325 329 336 334 328 327 326 328 328 328 326 327 328 332 331 330 330
312 310 306 304 302 299 304 314 316 323 324 319 318 317 319 320 320 319 320 319 318 319 321 321 322 323 324 324 328 329 330 331 329 329 327 329 328 327 326 327 329 330 334 346
312 310 306 304 302 299 309 316 320 322 322 324 324 319 321 323 324 323 323 322 320 321 321 321 322 322 324 326 326 327 331 334 335 331 327 328 327 327 328 328 328 328 328 340
312 310 307 304 303 301 308 309 309 317 320 324 324 322 320 322 322 324 323 323 322 322 323 322 321 323 325 327 328 329 330 333 335 331 328 328 328 327 327 328 328 329 340 349
312 310 307 304 302 299 306 307 306 315 319 322 322 323 321 322 323 324 325 324 327 328 328 325 324 322 325 326 326 327 330 332 333 332 336 342 339 338 332 332 341 341 346 346
312 310 308 304 302 300 305 307 307 314 319 321 321 321 320 322 324 325 325 326 328 328 327 327 325 324 326 326 325 327 326 330 330 330 330 331 340 341 338 335 346 345 347 347
312 310 307 303 302 301 303 306 306 309 317 318 317 318 321 322 322 325 324 326 326 326 328 326 327 327 326 326 326 328 327 331 331 329 330 331 348 343 342 342 346 345 346 348
312 310 308 304 302 301 302 306 306 308 314 316 316 318 319 319 321 324 325 326 325 324 328 326 328 327 329 327 328 330 328 329 326 326 327 328 340 339 341 341 348 342 342 343
312 310 307 304 302 301 302 306 305 306 312 314 314 315 316 317 320 322 325 325 326 323 328 328 328 329 329 328 330 331 330 331 329 328 329 329 338 337 347 344 340 339 339 340
312 310 307 304 302 301 300 305 306 307 310 313 311 311 311 313 314 316 321 330 327 329 330 330 329 327 326 328 328 335 330 330 344 345 346 340 337 338 335 333 336 336 336 336
312 310 307 304 302 301 301 305 304 303 308 313 314 314 314 313 313 313 317 327 326 329 327 330 327 331 332 329 332 330 335 337 331 333 336 336 336 334 333 332 334 333 333 334
312 310 307 305 302 302 301 306 305 303 306 313 315 314 315 315 315 315 315 316 320 323 323 326 327 328 329 327 332 336 336 337 333 334 330 331 332 333 332 332 332 332 333 333
312 310 308 306 302 302 303 306 306 304 305 314 316 313 313 314 315 316 316 317 322 321 321 322 324 324 326 326 324 327 332 333 332 335 333 331 336 332 330 331 332 332 333 334
311 310 307 305 302 301 305 309 307 305 302 310 316 316 319 316 316 316 318 319 320 319 319 320 320 324 327 324 327 331 330 330 329 333 329 329 329 329 328 328 330 332 333 335
311 309 307 303 302 304 308 311 306 303 304 312 315 317 318 316 316 318 319 318 318 318 319 319 319 322 322 323 325 329 329 328 328 327 325 324 327 328 326 327 328 330 332 334
310 308 305 302 301 302 304 305 303 303 308 311 316 319 320 316 317 318 319 318 318 318 318 320 321 323 323 323 329 329 328 326 325 324 325 324 324 326 326 327 329 330 331 334
308 305 302 303 303 308 308 303 302 303 309 314 314 319 319 319 319 320 320 317 317 319 318 318 320 321 323 325 327 326 326 325 324 324 323 324 325 326 327 327 328 331 333 334
304 302 304 311 310 305 303 308 311 309 309 311 314 318 322 319 318 320 319 318 321 321 319 321 320 318 327 325 326 325 325 325 323 324 323 326 325 327 327 329 331 331 331 330
301 303 304 309 302 306 311 312 312 314 314 312 311 314 319 319 320 320 321 322 321 322 324 320 323 321 327 326 325 326 326 325 324 325 326 326 326 326 328 330 328 326 327 328
303 303 307 308 309 313 312 313 313 313 314 311 311 312 319 320 322 323 322 322 322 323 325 322 322 334 330 327 327 328 327 326 326 326 326 325 325 325 325 326 326 324 324 326
303 307 310 313 313 319 313 314 314 314 313 314 311 314 318 322 322 321 322 321 322 322 322 321 330 332 330 329 327 327 327 326 326 326 325 324 324 324 323 323 323 325 325 324
310 312 320 315 314 315 315 315 315 315 316 316 312 314 319 322 321 322 321 321 322 321 321 320 328 330 328 328 326 327 327 326 325 325 325 324 323 323 323 323 324 323 323 323
311 313 318 314 314 314 314 314 314 315 315 314 312 315 320 322 321 320 321 321 319 320 320 323 331 330 329 329 328 326 326 325 325 325 326 325 324 324 325 324 324 323 322 322
313 313 314 314 315 314 314 314 315 314 314 315 314 317 320 319 318 319 319 318 318 319 321 325 330 330 329 327 326 325 324 324 324 324 323 324 324 324 325 325 323 322 321 322
313 314 314 314 315 314 313 312 311 313 315 316 314 316 317 318 317 318 318 318 320 322 322 324 328 329 328 326 324 319 321 321 321 322 323 324 324 324 324 323 322 321 321 320

GFSNW_925_thetae_072.txt.gz
Theta_e
316 313 310 308 306 304 306 311 314 318 317 318 320 319 318 316 319 320 320 321 321 322 322 323 325 325 327 327 328 325 326 325 328 327 328 329 328 329 328 329 334 333 336 333
316 313 311 307 304 301 303 313 315 313 315 315 319 320 320 318 318 318 319 320 321 322 321 322 323 323 324 327 327 331 332 326 327 328 328 329 327 327 328 332 336 336 337 333
316 314 311 307 304 301 303 311 316 317 320 316 318 319 321 321 319 318 318 319 320 320 321 322 322 322 323 326 326 339 332 330 338 327 330 330 332 327 327 329 335 333 330 349
315 313 311 308 306 302 304 315 316 317 324 323 323 322 320 320 321 322 318 320 319 319 320 321 322 322 323 324 326 325 330 338 333 328 326 327 328 329 328 327 329 330 333 354
315 313 311 308 306 301 307 315 315 318 319 322 324 322 322 320 321 325 325 325 322 322 322 321 322 322 323 325 327 328 332 337 334 332 330 330 328 329 330 329 327 327 329 348
315 314 311 309 307 301 312 312 311 311 315 320 324 325 324 321 323 323 324 325 324 324 322 325 324 322 323 324 329 332 335 338 337 336 333 334 331 329 336 329 330 335 338 350
316 314 311 309 306 301 305 308 310 310 314 318 323 325 324 324 323 324 323 325 324 327 329 327 325 324 322 323 326 332 333 336 338 336 338 335 334 336 343 340 348 351 349 345
316 314 312 309 306 302 304 306 309 311 314 318 321 322 324 322 323 325 325 325 327 327 327 327 327 326 326 324 325 329 331 334 333 334 331 332 338 338 342 348 354 348 339 345
316 314 312 309 305 303 303 306 309 309 311 314 318 319 321 322 321 323 325 326 327 326 327 329 329 326 324 325 325 326 327 332 331 334 333 334 347 335 332 339 357 346 347 346
315 314 312 308 305 302 302 305 308 308 310 312 314 317 318 319 320 321 325 326 327 325 327 333 332 331 330 327 329 333 329 333 330 329 327 328 341 338 339 337 353 343 342 343
314 313 311 308 305 302 303 306 308 308 309 310 311 314 316 318 319 321 322 324 327 327 330 332 333 336 333 332 334 336 337 337 331 332 331 332 340 342 350 347 343 340 340 339
314 313 311 308 305 302 302 306 308 307 309 311 309 309 310 311 314 317 318 327 327 329 327 332 333 337 334 335 336 336 334 334 346 343 346 343 337 338 335 336 337 336 336 336
314 313 311 308 306 303 301 306 307 308 308 310 311 313 313 313 312 313 316 323 323 327 328 327 329 335 331 332 332 330 332 333 337 334 340 338 336 334 333 333 333 333 333 334
314 313 311 308 306 302 302 305 308 309 307 310 314 314 316 315 315 316 316 317 318 321 325 325 325 332 329 326 329 334 333 329 327 337 336 334 335 334 332 333 334 333 332 333
313 312 311 308 306 303 304 306 307 309 307 309 310 309 313 315 314 317 317 317 321 322 323 323 323 324 327 328 326 332 331 331 338 339 336 337 338 332 329 330 331 331 330 332
313 312 310 308 306 303 306 310 310 308 306 307 312 314 316 318 315 317 318 319 321 322 321 322 322 325 324 324 324 330 332 330 328 335 328 331 329 330 328 327 327 328 329 331
312 311 310 307 305 304 307 312 309 305 305 309 315 316 317 318 316 317 318 319 320 319 319 320 320 320 322 324 321 333 332 331 333 331 331 328 327 326 324 326 326 327 329 332
311 310 308 306 303 302 304 307 307 305 308 310 314 318 320 318 317 317 318 319 320 319 318 318 320 320 321 324 325 329 329 328 326 324 323 323 324 326 326 326 326 326 331 335
310 308 305 304 304 308 310 306 301 302 309 315 313 314 322 318 317 318 321 320 319 318 319 319 320 319 321 326 325 329 327 327 325 325 323 322 325 325 326 328 332 333 333 333
307 303 304 310 310 308 305 307 309 310 311 311 312 314 317 321 318 320 320 318 319 321 322 318 319 320 326 326 328 328 326 324 321 322 323 325 325 326 331 331 331 332 331 330
302 305 306 309 306 308 309 313 314 314 314 314 312 311 312 318 320 320 320 325 321 321 323 322 322 326 325 327 327 325 323 322 321 322 322 324 326 330 330 329 326 325 324 324
305 305 306 309 308 313 315 314 315 316 317 316 312 311 312 319 322 324 323 323 325 323 327 329 323 338 330 326 326 325 324 324 324 324 327 326 327 328 328 327 326 324 323 321
305 308 312 314 314 318 316 316 317 317 316 315 313 312 313 323 323 325 327 321 326 324 325 322 333 336 330 327 325 325 325 325 324 324 325 325 325 325 325 325 326 326 325 325
310 312 315 316 316 316 317 317 317 317 316 316 314 313 316 318 321 322 323 322 322 325 322 325 336 333 330 326 323 324 325 325 325 326 326 326 326 326 324 324 324 324 325 323
312 314 317 316 316 316 316 316 317 316 317 316 314 312 315 319 325 321 325 326 325 321 322 335 332 331 329 327 328 327 324 326 327 325 325 326 326 323 324 326 324 324 322 324
312 315 317 315 316 315 315 315 316 317 316 315 313 312 315 324 322 321 321 321 318 321 332 332 332 333 331 328 326 326 325 325 325 325 325 325 325 324 326 325 325 323 324 323
312 315 315 316 316 317 317 316 316 316 316 317 315 314 317 318 320 319 320 318 326 326 327 330 336 334 330 328 326 321 322 321 320 321 322 323 324 324 325 325 324 323 322 322

GFSNW_925_thetae_075.txt.gz
Theta_e
317 317 316 313 309 308 304 308 315 319 318 318 318 319 320 317 318 317 317 318 319 320 321 321 322 322 323 324 323 324 329 328 325 324 325 327 326 326 325 325 325 328 326 326
318 317 315 313 308 304 301 309 314 315 316 316 314 316 318 319 320 317 317 317 318 319 320 321 323 322 322 323 323 328 327 330 331 326 324 324 325 327 327 326 325 324 328 334
318 317 315 312 308 305 301 308 316 317 317 318 319 318 318 320 320 321 321 318 317 318 318 319 322 322 322 322 322 337 328 329 335 333 331 328 328 329 327 324 327 325 327 342
318 316 314 312 309 306 303 311 318 317 320 317 319 323 324 323 322 320 324 326 321 319 318 320 320 320 321 322 325 327 328 330 335 330 330 329 328 328 328 327 327 332 329 352
316 316 314 312 309 306 306 312 313 312 312 315 318 321 325 325 322 323 325 324 325 325 325 323 323 320 320 322 323 326 333 335 337 337 332 331 332 334 333 337 341 337 342 348
316 316 314 312 309 305 309 311 311 312 312 313 316 321 326 326 325 323 323 323 323 325 326 326 326 324 323 321 321 331 335 332 334 338 335 333 334 350 349 350 343 350 354 353
316 315 315 312 310 305 305 306 308 312 311 312 315 319 323 324 325 324 324 324 326 326 326 326 327 326 325 325 324 330 334 333 333 337 339 339 336 337 346 345 346 344 341 345
316 316 315 312 310 306 303 305 307 312 311 311 313 318 319 319 322 324 323 326 326 324 326 328 330 328 327 326 325 331 327 330 328 336 333 333 346 337 340 343 337 343 341 337
315 316 315 313 310 306 303 304 306 311 311 310 311 311 315 319 319 320 321 322 322 324 326 328 332 333 333 330 325 326 327 326 327 332 336 338 346 334 335 333 345 341 344 336
314 316 315 312 310 306 303 304 306 308 310 310 310 310 312 314 317 319 323 318 322 325 330 333 334 332 332 337 335 340 337 334 331 331 333 346 341 333 334 340 346 345 343 343
315 315 314 312 310 306 303 305 306 308 310 309 309 310 312 314 316 319 318 320 327 330 334 334 334 336 334 336 335 334 337 337 339 339 337 342 339 339 348 343 339 340 339 337
314 315 314 312 310 306 303 305 308 308 311 309 308 307 307 308 309 311 315 323 329 329 332 332 333 333 334 333 337 330 338 338 339 338 341 338 335 337 336 335 336 336 337 335
315 314 313 311 310 306 303 304 304 308 312 310 309 310 310 310 309 309 312 325 326 325 324 328 330 333 330 335 334 334 332 330 339 336 339 338 336 334 333 333 334 334 334 334
314 314 313 312 310 307 303 304 307 308 311 309 310 310 308 311 313 311 311 313 322 320 319 323 326 331 331 332 327 331 333 332 331 335 336 337 331 332 334 335 334 332 331 335
314 314 313 311 309 307 305 305 307 308 310 309 308 306 310 313 314 315 316 318 322 320 322 325 327 322 329 328 327 335 331 332 337 336 331 329 326 330 332 329 329 331 329 336
314 313 312 311 308 307 306 307 310 308 309 309 308 310 312 313 316 316 318 320 321 322 322 322 322 321 327 325 328 332 331 329 331 335 329 327 325 326 329 326 328 329 328 334
314 313 312 310 308 305 308 310 310 305 306 308 311 316 318 314 318 317 318 318 320 321 321 321 320 320 321 325 329 333 331 331 330 330 330 332 327 324 324 326 325 326 331 335
312 312 311 309 307 305 305 309 309 306 307 310 313 315 319 319 319 318 317 318 320 322 320 320 319 320 323 323 333 330 328 329 328 330 327 322 323 327 330 331 332 333 333 333
311 310 308 305 303 308 310 308 306 307 307 313 316 314 318 318 322 319 320 321 322 320 321 320 320 323 325 330 330 331 329 330 326 324 323 326 328 331 331 331 332 331 330 331
309 305 304 308 308 308 305 304 310 308 309 309 312 313 315 319 323 323 324 323 320 323 320 320 321 320 329 328 330 328 325 324 323 322 324 327 331 331 330 329 330 328 327 327
304 305 306 309 308 308 311 314 314 314 315 313 313 312 311 315 321 321 323 328 325 325 326 323 324 333 332 330 327 324 323 322 321 321 322 327 329 329 326 328 326 325 324 323
307 306 308 309 309 312 315 316 316 317 317 318 316 315 310 312 315 321 329 326 328 329 330 330 331 335 329 327 327 325 324 324 325 326 327 327 328 328 328 327 326 325 324 325
307 310 312 314 313 315 317 317 317 319 320 320 317 316 316 322 324 328 328 329 327 326 332 329 335 335 332 329 327 325 324 325 327 327 327 327 327 326 320 321 322 326 325 325
309 311 312 316 316 316 316 317 319 319 320 319 319 317 318 321 323 327 326 325 327 328 326 332 335 334 330 327 327 327 328 328 327 328 327 327 326 323 321 320 323 321 326 325
312 314 315 315 315 316 316 317 318 319 320 320 318 317 316 319 327 327 327 329 328 327 334 336 333 332 331 331 330 326 328 327 327 326 326 326 322 319 318 318 317 320 323 324
313 314 316 316 317 316 316 318 317 318 320 319 317 315 317 325 326 324 325 325 324 332 336 333 333 334 333 331 329 326 326 326 326 325 325 325 326 325 323 318 324 321 323 323
312 314 315 315 316 319 319 319 318 320 320 319 318 315 315 323 322 325 326 325 329 332 332 331 334 332 332 328 324 324 323 322 321 322 322 322 320 322 325 324 323 322 322 321